Tracking 29892 objects as of 21-Nov-2024
HD Live streaming from Space Station
objects crossing your sky now

STARLINK-5757

Track STARLINK-5757 now!
10-day predictions
STARLINK-5757 is classified as:


NORAD ID: 55580
Int'l Code: 2023-020M
Perigee: 565.5 km
Apogee: 567.0 km
Inclination: 43.0 °
Period: 95.8 minutes
Semi major axis: 6937 km
RCS: Unknown
Launch date: February 12, 2023
Source: United States (US)
Launch site: AIR FORCE EASTERN TEST RANGE (AFETR)
Your satellite tracking list
Your tracking list is empty




NASA's NSSDC Master Catalog

Two Line Element Set (TLE):
1 55580U 23020M   24326.18551575  .00001797  00000-0  14808-3 0  9992
2 55580  43.0046  31.4000 0001118 269.5520  90.5195 15.02527428 97999
Source of the keplerian elements: AFSPC